Location: Unspecified
(0.0000°N, 0.0000°E)
Time: 06:36:47
(UTC+00:00)

Courier 1B - Pass Details

Date: 26 November 2019
Orbit: 963 x 1209 km, 28.3° (Epoch: 11 December)

Event Time Altitude Azimuth Distance (km) Brightness Sun altitude
Rises 20:56:28 0° 223° (SW) 3,999 11.4 -43.3°
Reaches altitude 10° 20:59:32 10° 214° (SW) 3,069 10.6 -44.0°
Enters shadow 21:02:46 23° 195° (SSW) 2,254 9.6 -44.7°
